Regional Weather Roundup
Issued by NWS

Home | Current Version | Previous Version | Graphics & Text | Print | Product List | Glossary On
Versions: 1 2 3 4 5 6 7 8 9 10 11 12 13 14 15 16 17 18 19 20 21 22 23 24 25 26 27 28 29 30 31 32 33 34 35 36 37 38 39 40 41 42 43 44 45 46 47 48 49 50
205
ASUS43 KBIS 201010
RWRND

NORTH DAKOTA REGIONAL WEATHER ROUNDUP
NATIONAL WEATHER SERVICE BISMARCK ND
400 AM CST FRI JAN 20 2017

NOTE: "FAIR" INDICATES FEW OR NO CLOUDS BELOW 12,000 FEET WITH NO
SIGNIFICANT WEATHER AND/OR OBSTRUCTIONS TO VISIBILITY.


NDZ001>003-009>011-017-201100-
NORTHWEST NORTH DAKOTA

CITY           SKY/WX    TMP DP  RH WIND       PRES   REMARKS
WILLISTON      FAIR      16  14  92 S3        29.42S FOG
MINOT          FAIR      20  16  84 SW9       29.38F WCI   9
MINOT AFB      CLOUDY    14  11  87 W5        29.38F WCI   6
$$

NDZ018>021-031>035-040>046-201100-
SOUTHWEST NORTH DAKOTA

CITY           SKY/WX    TMP DP  RH WIND       PRES   REMARKS
BISMARCK       FOG       20  19  96 NW3       29.46S VSB 1/4
DICKINSON      FAIR      19  16  88 W7        29.37F WCI  10
GARRISON         N/A      9   6  88 E3        29.40F
HETTINGER ARPT CLOUDY    13  11  92 W5        29.40S WCI   5
$$

NDZ004>008-012>016-024-026-027-054-201100-
NORTHEAST NORTH DAKOTA

CITY           SKY/WX    TMP DP  RH WIND       PRES   REMARKS
GRAND FORKS    CLOUDY    35  33  92 S10       29.54S FOG
GRND FRKS AFB  CLOUDY    32  32 100 S9        29.53S FOG
DEVILS LAKE    FOG       29  29 100 S7        29.47F VSB 3/4
$$

NDZ022-023-025-028>030-036>039-047>053-201100-
SOUTHEAST NORTH DAKOTA

CITY           SKY/WX    TMP DP  RH WIND       PRES   REMARKS
FARGO          CLOUDY    49  36  61 SE12      29.54F HAZE
JAMESTOWN      FOG       33  33 100 SE9       29.47F VSB 1/2
$$





USA.gov is the U.S. government's official web portal to all federal, state and local government web resources and services.